Weather History for Bainbridge, GA

Change the Weather History Date:

Thursday, May 30, 2013

  Actual Average (KMAI) Record (KMAI)
Temperature  
Mean Temperature 81 °F 78 °F  
Max Temperature 91 °F 89 °F 98 °F (2011)
Min Temperature 71 °F 68 °F 19 °F (1997)
Degree Days  
Heating Degree Days 0    
Month to date heating degree days  
Since 1 July heating degree days  
Cooling Degree Days 16    
Month to date cooling degree days  
Year to date cooling degree days  
Growing Degree Days 31 (Base 50)    
Moisture  
Dew Point 67 °F    
Average Humidity 66    
Maximum Humidity 94    
Minimum Humidity 38    
Precipitation  
Precipitation 0.00 in 0.13 in 0.52 in (1998)
Month to date precipitation 2.85  
Year to date precipitation 22.08  
Sea Level Pressure  
Sea Level Pressure 30.11 in    
Wind  
Wind Speed 7 mph (ESE)    
Max Wind Speed 15 mph    
Max Gust Speed 22 mph    
Visibility 10 miles    
Events      
T = Trace of Precipitation, MM = Missing Value Source: NWS Daily Summary

Daily Weather History Graph

Daily Weather History Graph

Search for Another Location

Airport:

Trip Planner

Search our weather history database for the weather conditions in past years. The results will help you decide how hot, cold, wet, or windy it might be!

Date:

Astronomy

May. 30, 2013 Rise Set
Actual Time 6:36 AM EDT 8:36 PM EDT
Civil Twilight 6:08 AM EDT 9:03 PM EDT
Nautical Twilight 5:35 AM EDT 9:36 PM EDT
Astronomical Twilight 5:00 AM EDT 10:12 PM EDT
Moon 12:50 AM EDT (5/30) 12:28 PM EDT (5/30)
Length of Visible Light 14h 54m
Length of Day
14h 00m
Waning Gibbous, 62% of the Moon is Illuminated
May 30
Waning Gibbous
May 31
Last Quarter
Jun 8
New
Jun 16
First Quarter
Jun 23
Full

Hourly Weather History & Observations

Time (EDT) Temp. Heat Index Dew Point Humidity Pressure Visibility Wind Dir Wind Speed Gust Speed Precip Events Conditions
12:15 AM 77.0 °F - 69.8 °F 78% 30.11 in 10.0 mi SE 6.9 mph - N/A   Scattered Clouds
12:35 AM 73.4 °F - 69.8 °F 88% 30.11 in 10.0 mi ESE 5.8 mph - N/A   Clear
12:55 AM 73.4 °F - 68.0 °F 83% 30.11 in 10.0 mi ESE 5.8 mph - N/A   Clear
1:15 AM 73.4 °F - 68.0 °F 83% 30.11 in 10.0 mi ESE 3.5 mph - N/A   Clear
1:35 AM 71.6 °F - 68.0 °F 88% 30.11 in 10.0 mi ESE 4.6 mph - N/A   Clear
1:55 AM 71.6 °F - 68.0 °F 88% 30.11 in 10.0 mi Calm Calm - N/A   Clear
2:15 AM 71.6 °F - 68.0 °F 88% 30.10 in 10.0 mi Calm Calm - N/A   Clear
2:35 AM 71.6 °F - 68.0 °F 88% 30.10 in 10.0 mi Calm Calm - N/A   Clear
2:55 AM 71.6 °F - 68.0 °F 88% 30.10 in 10.0 mi Calm Calm - N/A   Clear
3:15 AM 71.6 °F - 68.0 °F 88% 30.10 in 10.0 mi ESE 3.5 mph - N/A   Clear
3:35 AM 71.6 °F - 68.0 °F 88% 30.10 in 10.0 mi ESE 4.6 mph - N/A   Clear
3:55 AM 71.6 °F - 69.8 °F 94% 30.10 in 10.0 mi ESE 4.6 mph - N/A   Clear
4:15 AM 71.6 °F - 69.8 °F 94% 30.10 in 10.0 mi ESE 6.9 mph - N/A   Clear
4:35 AM 71.6 °F - 69.8 °F 94% 30.11 in 10.0 mi ESE 6.9 mph - N/A   Clear
4:55 AM 71.6 °F - 69.8 °F 94% 30.11 in 10.0 mi ESE 5.8 mph - N/A   Clear
5:15 AM 71.6 °F - 69.8 °F 94% 30.11 in 10.0 mi ESE 5.8 mph - N/A   Clear
5:35 AM 71.6 °F - 69.8 °F 94% 30.12 in 10.0 mi ESE 5.8 mph - N/A   Scattered Clouds
5:55 AM 71.6 °F - 69.8 °F 94% 30.12 in 10.0 mi ESE 5.8 mph - N/A   Mostly Cloudy
6:15 AM 71.6 °F - 69.8 °F 94% 30.12 in 10.0 mi ESE 6.9 mph - N/A   Mostly Cloudy
6:35 AM 71.6 °F - 69.8 °F 94% 30.13 in 10.0 mi ESE 4.6 mph - N/A   Mostly Cloudy
6:55 AM 71.6 °F - 69.8 °F 94% 30.14 in 10.0 mi East 3.5 mph - N/A   Mostly Cloudy
7:15 AM 71.6 °F - 69.8 °F 94% 30.15 in 10.0 mi East 4.6 mph - N/A   Mostly Cloudy
7:35 AM 73.4 °F - 69.8 °F 88% 30.15 in 10.0 mi East 4.6 mph - N/A   Mostly Cloudy
7:55 AM 73.4 °F - 69.8 °F 88% 30.16 in 10.0 mi ESE 5.8 mph - N/A   Scattered Clouds
8:15 AM 77.0 °F - 71.6 °F 83% 30.16 in 10.0 mi ESE 6.9 mph - N/A   Scattered Clouds
8:35 AM 77.0 °F - 71.6 °F 83% 30.16 in 10.0 mi ESE 10.4 mph - N/A   Mostly Cloudy
8:55 AM 77.0 °F - 69.8 °F 78% 30.17 in 10.0 mi ESE 11.5 mph 17.3 mph N/A   Mostly Cloudy
9:15 AM 77.0 °F - 69.8 °F 78% 30.18 in 10.0 mi SE 9.2 mph 17.3 mph N/A   Overcast
9:35 AM 77.0 °F - 69.8 °F 78% 30.18 in 10.0 mi SE 12.7 mph - N/A   Overcast
9:55 AM 80.6 °F 83.9 °F 69.8 °F 70% 30.18 in 10.0 mi ESE 10.4 mph - N/A   Overcast
10:15 AM 80.6 °F 83.9 °F 69.8 °F 70% 30.17 in 10.0 mi ESE 11.5 mph 17.3 mph N/A   Mostly Cloudy
10:35 AM 82.4 °F 86.3 °F 69.8 °F 66% 30.17 in 10.0 mi ESE 11.5 mph - N/A   Scattered Clouds
10:55 AM 82.4 °F 85.4 °F 68.0 °F 62% 30.17 in 10.0 mi SE 9.2 mph - N/A   Scattered Clouds
11:15 AM 82.4 °F 85.4 °F 68.0 °F 62% 30.16 in 10.0 mi SE 11.5 mph - N/A   Clear
11:35 AM 84.2 °F 87.3 °F 68.0 °F 58% 30.16 in 10.0 mi SE 9.2 mph - N/A   Scattered Clouds
11:55 AM 86.0 °F 89.4 °F 68.0 °F 55% 30.15 in 10.0 mi ESE 6.9 mph - N/A   Mostly Cloudy
12:15 PM 86.0 °F 89.4 °F 68.0 °F 55% 30.15 in 10.0 mi ESE 11.5 mph 16.1 mph N/A   Scattered Clouds
12:35 PM 87.8 °F 91.4 °F 68.0 °F 52% 30.14 in 10.0 mi ESE 9.2 mph - N/A   Clear
12:55 PM 89.6 °F 93.4 °F 68.0 °F 49% 30.14 in 10.0 mi SE 6.9 mph 18.4 mph N/A   Clear
1:15 PM 89.6 °F 93.4 °F 68.0 °F 49% 30.13 in 10.0 mi SE 10.4 mph - N/A   Scattered Clouds
1:35 PM 89.6 °F 92.2 °F 66.2 °F 46% 30.12 in 10.0 mi SE 6.9 mph - N/A   Clear
1:55 PM 91.4 °F 95.4 °F 68.0 °F 46% 30.11 in 10.0 mi SE 13.8 mph 17.3 mph N/A   Clear
2:15 PM 91.4 °F 93.2 °F 64.4 °F 41% 30.10 in 10.0 mi SE 13.8 mph 18.4 mph N/A   Scattered Clouds
2:35 PM 91.4 °F 93.2 °F 64.4 °F 41% 30.10 in 10.0 mi ESE 11.5 mph 21.9 mph N/A   Scattered Clouds
2:55 PM 91.4 °F 92.1 °F 62.6 °F 38% 30.09 in 10.0 mi East 12.7 mph 21.9 mph N/A   Clear
3:15 PM 91.4 °F 92.1 °F 62.6 °F 38% 30.09 in 10.0 mi East 13.8 mph 19.6 mph N/A   Scattered Clouds
3:35 PM 91.4 °F 93.2 °F 64.4 °F 41% 30.08 in 10.0 mi SE 6.9 mph 16.1 mph N/A   Scattered Clouds
3:55 PM 91.4 °F 92.1 °F 62.6 °F 38% 30.07 in 10.0 mi ESE 10.4 mph 16.1 mph N/A   Clear
4:15 PM 91.4 °F 92.1 °F 62.6 °F 38% 30.06 in 10.0 mi East 10.4 mph - N/A   Clear
4:35 PM 91.4 °F 92.1 °F 62.6 °F 38% 30.06 in 10.0 mi SE 10.4 mph 17.3 mph N/A   Clear
4:55 PM 91.4 °F 92.1 °F 62.6 °F 38% 30.05 in 10.0 mi ESE 9.2 mph 17.3 mph N/A   Clear
5:15 PM 91.4 °F 92.1 °F 62.6 °F 38% 30.04 in 10.0 mi East 10.4 mph 16.1 mph N/A   Scattered Clouds
5:35 PM 91.4 °F 92.1 °F 62.6 °F 38% 30.05 in 10.0 mi SE 9.2 mph - N/A   Scattered Clouds
5:55 PM 91.4 °F 92.1 °F 62.6 °F 38% 30.04 in 10.0 mi ESE 10.4 mph 17.3 mph N/A   Clear
6:15 PM 91.4 °F 92.1 °F 62.6 °F 38% 30.04 in 10.0 mi East 10.4 mph 16.1 mph N/A   Clear
6:35 PM 91.4 °F 92.1 °F 62.6 °F 38% 30.04 in 10.0 mi East 9.2 mph - N/A   Clear
6:55 PM 89.6 °F 90.1 °F 62.6 °F 40% 30.04 in 10.0 mi East 9.2 mph - N/A   Scattered Clouds
7:15 PM 89.6 °F 90.1 °F 62.6 °F 40% 30.05 in 10.0 mi ESE 6.9 mph 10.4 mph N/A   Clear
7:35 PM 89.6 °F 91.1 °F 64.4 °F 43% 30.05 in 10.0 mi East 6.9 mph - N/A   Scattered Clouds
7:55 PM 89.6 °F 91.1 °F 64.4 °F 43% 30.05 in 10.0 mi East 8.1 mph - N/A   Scattered Clouds
8:15 PM 87.8 °F 89.4 °F 64.4 °F 46% 30.05 in 10.0 mi ESE 5.8 mph - N/A   Scattered Clouds
8:35 PM 86.0 °F 86.6 °F 62.6 °F 45% 30.05 in 10.0 mi ESE 8.1 mph - N/A   Clear
8:55 PM 86.0 °F 86.6 °F 62.6 °F 45% 30.05 in 10.0 mi ESE 11.5 mph - N/A   Clear
9:15 PM 86.0 °F 87.3 °F 64.4 °F 48% 30.07 in 10.0 mi ESE 9.2 mph - N/A   Clear
9:35 PM 82.4 °F 86.3 °F 69.8 °F 66% 30.09 in 10.0 mi South 15.0 mph 20.7 mph N/A   Scattered Clouds
9:55 PM 80.6 °F 83.9 °F 69.8 °F 70% 30.09 in 10.0 mi South 10.4 mph - N/A   Clear
10:15 PM 80.6 °F 83.9 °F 69.8 °F 70% 30.10 in 10.0 mi SSE 9.2 mph - N/A   Clear
10:35 PM 78.8 °F - 69.8 °F 74% 30.11 in 10.0 mi SSE 6.9 mph - N/A   Clear
10:55 PM 78.8 °F - 69.8 °F 74% 30.11 in 10.0 mi SSE 5.8 mph - N/A   Scattered Clouds
11:15 PM 77.0 °F - 69.8 °F 78% 30.11 in 10.0 mi SE 5.8 mph - N/A   Clear
11:35 PM 77.0 °F - 69.8 °F 78% 30.11 in 10.0 mi ESE 4.6 mph - N/A   Clear
11:55 PM 77.0 °F - 71.6 °F 83% 30.11 in 10.0 mi ESE 3.5 mph - N/A   Clear